VSV734 UACC-UAAA

Flight info

Callsign VSV734
Flight time 1h 23m
Altitude 33000
Route BANOS W333 ETEDA ETEDA1X
Aircraft B738/M-SDE2E3FGHIRWXY/LB1

Departure

Time 2026-04-24 08:41
Airport Nursultan Nazarbayev International Airport (UACC)

Arrival

Time 2026-04-24 10:04
Airport Almaty International Airport (UAAA)
Time Latitude Longitude Altitude Speed Heading
2026-04-24 08:15 51.02438 71.45966 1173 ft 0 kts 44°
2026-04-24 08:34 51.02440 71.45969 1173 ft 1 kts 44°
2026-04-24 08:34 51.02449 71.45982 1173 ft 2 kts 44°
2026-04-24 08:34 51.02460 71.45998 1173 ft 1 kts 46°
2026-04-24 08:35 51.02463 71.46053 1173 ft 7 kts 118°
2026-04-24 08:35 51.02435 71.46106 1173 ft 5 kts 137°
2026-04-24 08:35 51.02410 71.46146 1173 ft 6 kts 130°
2026-04-24 08:35 51.02370 71.46214 1173 ft 8 kts 134°
2026-04-24 08:36 51.02348 71.46282 1173 ft 6 kts 86°
2026-04-24 08:36 51.02371 71.46335 1173 ft 5 kts 45°
2026-04-24 08:36 51.02396 71.46375 1173 ft 5 kts 44°
2026-04-24 08:36 51.02430 71.46428 1173 ft 9 kts 44°
2026-04-24 08:37 51.02473 71.46495 1173 ft 8 kts 44°
2026-04-24 08:37 51.02513 71.46557 1173 ft 8 kts 44°
2026-04-24 08:37 51.02552 71.46617 1173 ft 5 kts 44°
2026-04-24 08:37 51.02561 71.46631 1173 ft 0 kts 44°
2026-04-24 08:38 51.02564 71.46635 1173 ft 1 kts 44°
2026-04-24 08:38 51.02602 71.46695 1173 ft 15 kts 44°
2026-04-24 08:38 51.02708 71.46862 1173 ft 19 kts 44°
2026-04-24 08:38 51.02714 71.46988 1173 ft 11 kts 126°
2026-04-24 08:39 51.02663 71.47071 1173 ft 9 kts 136°
2026-04-24 08:39 51.02616 71.47128 1173 ft 8 kts 171°
2026-04-24 08:39 51.02530 71.47052 1173 ft 23 kts 230°
2026-04-24 08:39 51.02484 71.46973 1173 ft 0 kts 225°
2026-04-24 08:40 51.02359 71.46777 1173 ft 63 kts 224°
2026-04-24 08:40 51.01862 71.46003 1173 ft 135 kts 225°
2026-04-24 08:40 51.01081 71.44830 1648 ft 159 kts 224°
2026-04-24 08:41 51.00269 71.43615 2379 ft 170 kts 224°
2026-04-24 08:41 50.99414 71.42286 3105 ft 176 kts 225°
2026-04-24 08:41 50.98521 71.40874 3590 ft 191 kts 224°
2026-04-24 08:41 50.97544 71.39343 4079 ft 206 kts 224°
2026-04-24 08:42 50.96500 71.37709 4616 ft 220 kts 224°
2026-04-24 08:42 50.95353 71.35919 5151 ft 237 kts 224°
2026-04-24 08:42 50.94150 71.34045 5801 ft 249 kts 225°
2026-04-24 08:42 50.92868 71.32130 6431 ft 261 kts 217°
2026-04-24 08:43 50.91207 71.31049 7338 ft 265 kts 187°
2026-04-24 08:43 50.89376 71.31477 8203 ft 274 kts 161°
2026-04-24 08:43 50.87783 71.33151 9003 ft 285 kts 140°
2026-04-24 08:43 50.86452 71.35505 9782 ft 292 kts 134°
2026-04-24 08:44 50.85174 71.38039 10458 ft 300 kts 133°
2026-04-24 08:44 50.83837 71.40713 10910 ft 316 kts 133°
2026-04-24 08:44 50.82437 71.43477 11360 ft 332 kts 133°
2026-04-24 08:44 50.80957 71.46365 11797 ft 347 kts 133°
2026-04-24 08:45 50.79405 71.49377 12214 ft 363 kts 133°
2026-04-24 08:45 50.77776 71.52535 12749 ft 374 kts 132°
2026-04-24 08:45 50.76126 71.55735 13520 ft 378 kts 133°
2026-04-24 08:45 50.74458 71.58968 14287 ft 381 kts 132°
2026-04-24 08:46 50.72788 71.62201 15068 ft 384 kts 133°
2026-04-24 08:46 50.71096 71.65471 15757 ft 389 kts 133°
2026-04-24 08:46 50.69383 71.68777 16491 ft 392 kts 133°
2026-04-24 08:46 50.67660 71.72096 17214 ft 395 kts 133°
2026-04-24 08:47 50.65910 71.75462 17868 ft 399 kts 133°
2026-04-24 08:47 50.64153 71.78835 18540 ft 403 kts 133°
2026-04-24 08:47 50.62356 71.82282 19198 ft 407 kts 133°
2026-04-24 08:47 50.60567 71.85709 19865 ft 410 kts 133°
2026-04-24 08:48 50.58752 71.89180 20520 ft 413 kts 132°
2026-04-24 08:48 50.56924 71.92671 21100 ft 417 kts 132°
2026-04-24 08:48 50.55047 71.96252 21753 ft 420 kts 132°
2026-04-24 08:48 50.53178 71.99813 22356 ft 424 kts 132°
2026-04-24 08:49 50.51298 72.03391 22964 ft 427 kts 132°
2026-04-24 08:49 50.49391 72.07014 23501 ft 431 kts 131°
2026-04-24 08:49 50.47496 72.10610 24079 ft 434 kts 131°
2026-04-24 08:49 50.45544 72.14310 24557 ft 438 kts 132°
2026-04-24 08:50 50.43590 72.18006 25092 ft 441 kts 132°
2026-04-24 08:50 50.41653 72.21667 25597 ft 444 kts 132°
2026-04-24 08:50 50.39665 72.25419 26085 ft 447 kts 132°
2026-04-24 08:50 50.37672 72.29175 26610 ft 449 kts 132°
2026-04-24 08:51 50.35645 72.32988 27011 ft 453 kts 132°
2026-04-24 08:51 50.33617 72.36798 27473 ft 455 kts 131°
2026-04-24 08:51 50.31575 72.40630 27912 ft 458 kts 131°
2026-04-24 08:51 50.29507 72.44501 28341 ft 461 kts 131°
2026-04-24 08:52 50.27468 72.48318 28944 ft 459 kts 131°
2026-04-24 08:52 50.25442 72.52106 29574 ft 456 kts 131°
2026-04-24 08:52 50.23419 72.55882 30117 ft 455 kts 131°
2026-04-24 08:52 50.21392 72.59657 30584 ft 455 kts 131°
2026-04-24 08:53 50.19376 72.63419 31085 ft 454 kts 132°
2026-04-24 08:53 50.17260 72.67095 31521 ft 453 kts 136°
2026-04-24 08:53 50.15030 72.70561 31977 ft 452 kts 139°
2026-04-24 08:53 50.12765 72.73881 32407 ft 451 kts 140°
2026-04-24 08:54 50.10457 72.77189 32814 ft 451 kts 140°
2026-04-24 08:54 50.08144 72.80482 33080 ft 453 kts 140°
2026-04-24 08:54 50.05806 72.83818 33090 ft 454 kts 140°
2026-04-24 08:55 50.01246 72.90371 33099 ft 448 kts 140°
2026-04-24 08:55 49.96664 72.96958 33097 ft 448 kts 140°
2026-04-24 08:56 49.92075 73.03515 33093 ft 449 kts 140°
2026-04-24 08:56 49.87505 73.10080 33082 ft 448 kts 140°
2026-04-24 08:57 49.82944 73.16647 33147 ft 455 kts 139°
2026-04-24 08:57 49.80604 73.20015 33332 ft 459 kts 139°
2026-04-24 08:57 49.78257 73.23395 33745 ft 458 kts 139°
2026-04-24 08:57 49.75954 73.26712 34120 ft 457 kts 139°
2026-04-24 08:58 49.73613 73.30080 34502 ft 457 kts 139°
2026-04-24 08:58 49.71304 73.33392 34826 ft 456 kts 141°
2026-04-24 08:58 49.68893 73.36515 35063 ft 453 kts 146°
2026-04-24 08:58 49.66279 73.39219 35313 ft 449 kts 153°
2026-04-24 08:59 49.63537 73.41389 35460 ft 447 kts 159°
2026-04-24 08:59 49.60637 73.43179 35653 ft 444 kts 163°
2026-04-24 08:59 49.57726 73.44767 35815 ft 444 kts 164°
2026-04-24 08:59 49.54831 73.46297 35992 ft 443 kts 164°
2026-04-24 09:00 49.51937 73.47839 36158 ft 444 kts 164°
2026-04-24 09:00 49.49045 73.49419 36449 ft 443 kts 164°
2026-04-24 09:00 49.46122 73.51053 36670 ft 444 kts 163°
2026-04-24 09:00 49.43245 73.52690 36901 ft 444 kts 163°
2026-04-24 09:01 49.40374 73.54346 37082 ft 445 kts 163°
2026-04-24 09:01 49.34558 73.57755 37110 ft 445 kts 163°
2026-04-24 09:02 49.28869 73.61132 37114 ft 442 kts 163°
2026-04-24 09:02 49.23111 73.64550 37109 ft 443 kts 163°
2026-04-24 09:03 49.17406 73.67942 37122 ft 441 kts 163°
2026-04-24 09:03 49.11669 73.71345 37122 ft 442 kts 163°
2026-04-24 09:04 49.05948 73.74724 37119 ft 442 kts 163°
2026-04-24 09:04 49.00227 73.78095 37127 ft 442 kts 163°
2026-04-24 09:05 48.94523 73.81441 37130 ft 442 kts 163°
2026-04-24 09:05 48.88759 73.84803 37126 ft 442 kts 163°
2026-04-24 09:06 48.83056 73.88123 37128 ft 442 kts 163°
2026-04-24 09:06 48.77333 73.91444 37126 ft 442 kts 163°
2026-04-24 09:07 48.71568 73.94785 37126 ft 443 kts 163°
2026-04-24 09:07 48.62961 73.99757 37120 ft 442 kts 163°
2026-04-24 09:08 48.57239 74.03056 37117 ft 442 kts 163°
2026-04-24 09:08 48.51492 74.06358 37122 ft 443 kts 163°
2026-04-24 09:09 48.45767 74.09632 37124 ft 443 kts 164°
2026-04-24 09:09 48.40006 74.12920 37117 ft 443 kts 163°
2026-04-24 09:10 48.34263 74.16200 37122 ft 444 kts 163°
2026-04-24 09:10 48.28480 74.19493 37119 ft 444 kts 163°
2026-04-24 09:11 48.22715 74.22765 37120 ft 444 kts 163°
2026-04-24 09:11 48.16958 74.26025 37116 ft 443 kts 164°
2026-04-24 09:12 48.11208 74.29280 37118 ft 443 kts 163°
2026-04-24 09:12 48.05460 74.32558 37121 ft 443 kts 163°
2026-04-24 09:13 47.99873 74.35750 37113 ft 444 kts 163°
2026-04-24 09:13 47.94114 74.39033 37111 ft 444 kts 163°
2026-04-24 09:14 47.88325 74.42327 37114 ft 445 kts 163°
2026-04-24 09:14 47.82550 74.45597 37111 ft 445 kts 163°
2026-04-24 09:15 47.76786 74.48846 37115 ft 444 kts 164°
2026-04-24 09:15 47.70987 74.52113 37114 ft 445 kts 163°
2026-04-24 09:16 47.65226 74.55351 37115 ft 445 kts 163°
2026-04-24 09:16 47.59451 74.58594 37117 ft 445 kts 164°
2026-04-24 09:17 47.53668 74.61826 37116 ft 445 kts 164°
2026-04-24 09:17 47.47885 74.65067 37115 ft 445 kts 165°
2026-04-24 09:18 47.42137 74.68294 37113 ft 445 kts 164°
2026-04-24 09:18 47.36351 74.71529 37114 ft 446 kts 165°
2026-04-24 09:19 47.30533 74.74770 37114 ft 445 kts 165°
2026-04-24 09:19 47.24764 74.77992 37111 ft 446 kts 164°
2026-04-24 09:20 47.18979 74.81215 37108 ft 446 kts 165°
2026-04-24 09:20 47.13222 74.84429 37107 ft 446 kts 165°
2026-04-24 09:21 47.07429 74.87648 37108 ft 445 kts 165°
2026-04-24 09:21 47.01635 74.90847 37105 ft 445 kts 165°
2026-04-24 09:22 46.95842 74.94035 37107 ft 445 kts 165°
2026-04-24 09:22 46.90099 74.97189 37106 ft 444 kts 165°
2026-04-24 09:23 46.84329 75.00500 37104 ft 447 kts 162°
2026-04-24 09:23 46.78615 75.04150 37103 ft 449 kts 161°
2026-04-24 09:24 46.72935 75.07841 37099 ft 447 kts 161°
2026-04-24 09:24 46.67248 75.11495 37098 ft 447 kts 162°
2026-04-24 09:25 46.61594 75.15095 37096 ft 446 kts 162°
2026-04-24 09:25 46.55920 75.18682 37095 ft 446 kts 162°
2026-04-24 09:26 46.50209 75.22272 37092 ft 446 kts 162°
2026-04-24 09:26 46.44534 75.25827 37092 ft 446 kts 162°
2026-04-24 09:27 46.38843 75.29381 37092 ft 447 kts 162°
2026-04-24 09:27 46.33148 75.32931 37090 ft 446 kts 162°
2026-04-24 09:28 46.27441 75.36482 37091 ft 446 kts 162°
2026-04-24 09:28 46.21743 75.40017 37089 ft 446 kts 162°
2026-04-24 09:29 46.16065 75.43546 37090 ft 446 kts 162°
2026-04-24 09:29 46.10394 75.47079 37089 ft 445 kts 162°
2026-04-24 09:30 46.04717 75.50610 37089 ft 445 kts 162°
2026-04-24 09:30 45.99028 75.54142 37088 ft 445 kts 162°
2026-04-24 09:31 45.93325 75.57671 37087 ft 445 kts 162°
2026-04-24 09:31 45.87651 75.61181 37089 ft 445 kts 162°
2026-04-24 09:32 45.81966 75.64690 37086 ft 445 kts 162°
2026-04-24 09:32 45.76290 75.68184 37086 ft 444 kts 163°
2026-04-24 09:33 45.70620 75.71661 37084 ft 445 kts 163°
2026-04-24 09:33 45.64994 75.75112 37084 ft 444 kts 163°
2026-04-24 09:34 45.59321 75.78584 37081 ft 444 kts 163°
2026-04-24 09:34 45.53658 75.82046 37078 ft 444 kts 163°
2026-04-24 09:35 45.47990 75.85501 37069 ft 444 kts 163°
2026-04-24 09:35 45.42292 75.88961 37075 ft 444 kts 163°
2026-04-24 09:36 45.36620 75.92396 37070 ft 444 kts 163°
2026-04-24 09:36 45.30959 75.95813 37069 ft 444 kts 163°
2026-04-24 09:37 45.25288 75.99235 37067 ft 444 kts 163°
2026-04-24 09:37 45.19615 76.02644 37063 ft 443 kts 163°
2026-04-24 09:38 45.13918 76.06058 37062 ft 444 kts 163°
2026-04-24 09:38 45.08244 76.09455 37062 ft 444 kts 163°
2026-04-24 09:39 45.02565 76.12846 37058 ft 443 kts 163°
2026-04-24 09:39 44.96874 76.16235 37060 ft 444 kts 163°
2026-04-24 09:40 44.91197 76.19612 37064 ft 443 kts 163°
2026-04-24 09:40 44.85546 76.22979 37066 ft 443 kts 163°
2026-04-24 09:41 44.79879 76.26344 37070 ft 442 kts 163°
2026-04-24 09:41 44.74183 76.29721 37070 ft 443 kts 163°
2026-04-24 09:42 44.68544 76.33055 37073 ft 441 kts 163°
2026-04-24 09:42 44.62892 76.36395 36778 ft 437 kts 163°
2026-04-24 09:43 44.60118 76.38034 36271 ft 433 kts 163°
2026-04-24 09:43 44.57350 76.39668 35746 ft 431 kts 163°
2026-04-24 09:43 44.54584 76.41296 35184 ft 433 kts 164°
2026-04-24 09:43 44.51812 76.42922 34530 ft 436 kts 164°
2026-04-24 09:44 44.49958 76.44006 34077 ft 438 kts 163°
2026-04-24 09:44 44.46189 76.46207 33031 ft 443 kts 164°
2026-04-24 09:44 44.43364 76.47857 32431 ft 441 kts 164°
2026-04-24 09:44 44.40525 76.49478 31851 ft 437 kts 165°
2026-04-24 09:45 44.37656 76.50765 31289 ft 427 kts 174°
2026-04-24 09:45 44.34790 76.51186 30753 ft 414 kts 186°
2026-04-24 09:45 44.31937 76.50807 30189 ft 404 kts 195°
2026-04-24 09:45 44.29221 76.49892 29586 ft 398 kts 200°
2026-04-24 09:46 44.26627 76.48673 29017 ft 392 kts 205°
2026-04-24 09:46 44.24162 76.47229 28467 ft 387 kts 208°
2026-04-24 09:46 44.21726 76.45650 27922 ft 382 kts 209°
2026-04-24 09:46 44.19339 76.44046 27383 ft 378 kts 210°
2026-04-24 09:47 44.16974 76.42451 26843 ft 375 kts 210°
2026-04-24 09:47 44.14664 76.40899 26314 ft 371 kts 209°
2026-04-24 09:47 44.12345 76.39354 25781 ft 368 kts 209°
2026-04-24 09:47 44.10050 76.37839 25254 ft 365 kts 209°
2026-04-24 09:48 44.07742 76.36325 24713 ft 361 kts 209°
2026-04-24 09:48 44.05485 76.34856 24182 ft 358 kts 209°
2026-04-24 09:48 44.03246 76.33405 23661 ft 354 kts 209°
2026-04-24 09:48 44.01036 76.31973 23155 ft 351 kts 209°
2026-04-24 09:49 43.98828 76.30543 22635 ft 348 kts 209°
2026-04-24 09:49 43.96639 76.29131 22133 ft 345 kts 209°
2026-04-24 09:49 43.94490 76.27746 21624 ft 343 kts 209°
2026-04-24 09:49 43.92340 76.26364 21135 ft 340 kts 209°
2026-04-24 09:50 43.90113 76.25227 20644 ft 341 kts 199°
2026-04-24 09:50 43.87755 76.24721 20119 ft 346 kts 188°
2026-04-24 09:50 43.85331 76.24849 19545 ft 352 kts 179°
2026-04-24 09:50 43.82928 76.25372 18925 ft 355 kts 175°
2026-04-24 09:51 43.80521 76.26064 18348 ft 356 kts 173°
2026-04-24 09:51 43.78099 76.26833 17824 ft 354 kts 172°
2026-04-24 09:51 43.75718 76.27607 17339 ft 352 kts 172°
2026-04-24 09:51 43.73354 76.28369 16841 ft 350 kts 172°
2026-04-24 09:52 43.70987 76.29119 16317 ft 349 kts 172°
2026-04-24 09:52 43.68624 76.29857 15805 ft 347 kts 171°
2026-04-24 09:52 43.66257 76.30588 15315 ft 344 kts 172°
2026-04-24 09:52 43.63932 76.31295 14829 ft 342 kts 171°
2026-04-24 09:53 43.61628 76.32026 14340 ft 342 kts 168°
2026-04-24 09:53 43.59370 76.33041 13864 ft 342 kts 162°
2026-04-24 09:53 43.57169 76.34354 13362 ft 343 kts 157°
2026-04-24 09:53 43.55066 76.35777 12879 ft 341 kts 155°
2026-04-24 09:54 43.52941 76.37279 12398 ft 340 kts 154°
2026-04-24 09:54 43.50861 76.38755 11917 ft 339 kts 154°
2026-04-24 09:54 43.48779 76.40215 11488 ft 336 kts 154°
2026-04-24 09:54 43.46715 76.41650 11251 ft 327 kts 154°
2026-04-24 09:55 43.44704 76.43040 10893 ft 323 kts 154°
2026-04-24 09:55 43.42715 76.44410 10637 ft 315 kts 154°
2026-04-24 09:55 43.40810 76.45831 10435 ft 306 kts 147°
2026-04-24 09:55 43.39145 76.47627 10062 ft 304 kts 138°
2026-04-24 09:56 43.37645 76.49564 9853 ft 296 kts 136°
2026-04-24 09:56 43.36167 76.51559 9485 ft 295 kts 135°
2026-04-24 09:56 43.34712 76.53524 9126 ft 294 kts 135°
2026-04-24 09:56 43.33257 76.55463 8774 ft 292 kts 136°
2026-04-24 09:57 43.31794 76.57388 8420 ft 290 kts 136°
2026-04-24 09:57 43.30338 76.59287 8077 ft 288 kts 136°
2026-04-24 09:57 43.28892 76.61168 7736 ft 286 kts 136°
2026-04-24 09:57 43.27460 76.63062 7413 ft 283 kts 131°
2026-04-24 09:58 43.26339 76.65187 7243 ft 269 kts 115°
2026-04-24 09:58 43.25747 76.67570 6981 ft 263 kts 102°
2026-04-24 09:58 43.25396 76.70023 6610 ft 264 kts 99°
2026-04-24 09:58 43.25058 76.72496 6313 ft 261 kts 101°
2026-04-24 09:59 43.24691 76.74889 6211 ft 251 kts 101°
2026-04-24 09:59 43.24313 76.77184 6162 ft 238 kts 102°
2026-04-24 09:59 43.23980 76.79343 6089 ft 227 kts 97°
2026-04-24 09:59 43.24014 76.81444 5873 ft 219 kts 72°
2026-04-24 10:00 43.24757 76.83216 5579 ft 216 kts 50°
2026-04-24 10:00 43.25691 76.84825 5263 ft 217 kts 53°
2026-04-24 10:00 43.26554 76.86528 4950 ft 213 kts 56°
2026-04-24 10:00 43.27364 76.88197 4578 ft 206 kts 55°
2026-04-24 10:01 43.28138 76.89766 4269 ft 191 kts 55°
2026-04-24 10:01 43.28863 76.91218 4035 ft 180 kts 55°
2026-04-24 10:01 43.29561 76.92612 3806 ft 173 kts 55°
2026-04-24 10:01 43.30225 76.93947 3560 ft 161 kts 54°
2026-04-24 10:02 43.30824 76.95152 3421 ft 152 kts 54°
2026-04-24 10:02 43.31424 76.96352 3176 ft 151 kts 55°
2026-04-24 10:02 43.32017 76.97540 2984 ft 151 kts 54°
2026-04-24 10:02 43.32610 76.98737 2783 ft 150 kts 55°
2026-04-24 10:03 43.33205 76.99924 2592 ft 150 kts 54°
2026-04-24 10:03 43.33791 77.01080 2392 ft 149 kts 54°
2026-04-24 10:03 43.34372 77.02248 2242 ft 144 kts 54°
2026-04-24 10:03 43.34916 77.03338 2236 ft 131 kts 56°
2026-04-24 10:04 43.35285 77.04085 2243 ft 51 kts 55°
2026-04-24 10:04 43.35402 77.04330 2245 ft 26 kts 53°
2026-04-24 10:04 43.35459 77.04430 2246 ft 7 kts 220°
2026-04-24 10:04 43.35413 77.04349 2245 ft 14 kts 233°
2026-04-24 10:05 43.35358 77.04238 2244 ft 14 kts 236°
2026-04-24 10:05 43.35277 77.04073 2243 ft 27 kts 237°
2026-04-24 10:05 43.35311 77.03957 2241 ft 15 kts 22°
2026-04-24 10:05 43.35408 77.04013 2240 ft 14 kts 356°
2026-04-24 10:06 43.35422 77.03912 2239 ft 13 kts 235°
2026-04-24 10:06 43.35313 77.03699 2237 ft 13 kts 234°
2026-04-24 10:06 43.35263 77.03589 2236 ft 13 kts 236°
2026-04-24 10:07 43.35211 77.03484 2234 ft 13 kts 235°
2026-04-24 10:07 43.35160 77.03383 2233 ft 12 kts 235°
2026-04-24 10:07 43.35111 77.03283 2233 ft 12 kts 236°
2026-04-24 10:07 43.35062 77.03184 2232 ft 13 kts 236°
2026-04-24 10:08 43.35004 77.03067 2232 ft 15 kts 236°
2026-04-24 10:08 43.34947 77.02951 2232 ft 13 kts 236°
2026-04-24 10:08 43.34895 77.02847 2233 ft 12 kts 236°
2026-04-24 10:08 43.34851 77.02757 2233 ft 10 kts 236°
2026-04-24 10:09 43.34813 77.02681 2234 ft 8 kts 236°
2026-04-24 10:09 43.34782 77.02618 2234 ft 6 kts 236°
2026-04-24 10:09 43.34767 77.02567 2235 ft 5 kts 273°
2026-04-24 10:09 43.34771 77.02502 2234 ft 7 kts 275°
2026-04-24 10:10 43.34775 77.02433 2234 ft 7 kts 274°
2026-04-24 10:10 43.34779 77.02353 2233 ft 11 kts 274°
2026-04-24 10:10 43.34785 77.02235 2229 ft 13 kts 274°
2026-04-24 10:10 43.34789 77.02112 2228 ft 12 kts 274°
2026-04-24 10:11 43.34795 77.02003 2228 ft 10 kts 274°
2026-04-24 10:11 43.34800 77.01910 2229 ft 8 kts 274°
2026-04-24 10:11 43.34804 77.01833 2229 ft 7 kts 274°
2026-04-24 10:11 43.34807 77.01769 2229 ft 6 kts 274°
2026-04-24 10:12 43.34810 77.01716 2229 ft 5 kts 274°
2026-04-24 10:12 43.34813 77.01648 2229 ft 11 kts 273°
2026-04-24 10:12 43.34818 77.01545 2229 ft 6 kts 273°
2026-04-24 10:12 43.34818 77.01540 2229 ft 0 kts 273°
2026-04-24 10:15 43.34819 77.01557 2229 ft 2 kts 249°
2026-04-24 10:15 43.34826 77.01575 2229 ft 2 kts 226°
2026-04-24 10:16 43.34839 77.01587 2229 ft 2 kts 199°
2026-04-24 10:16 43.34853 77.01590 2229 ft 2 kts 179°
2026-04-24 10:16 43.34869 77.01592 2228 ft 2 kts 187°
2026-04-24 10:16 43.34878 77.01593 2228 ft 0 kts 185°